London, United Kingdom

11:16 PM BST on September 30, 2016 (GMT +0100)
Heathrow

Weather History for EGLL - February, 2014

Change the Weather History Date:

Tuesday, February 18, 2014

  Actual Average Record
Temperature  
Mean Temperature 46 °F -  
Max Temperature 52 °F 47 °F 53 °F (1998)
Min Temperature 41 °F 36 °F 26 °F (2003)
Degree Days  
Heating Degree Days 18    
Moisture  
Dew Point 44 °F    
Average Humidity 88    
Maximum Humidity 93    
Minimum Humidity 75    
Precipitation  
Precipitation 0.24 in - - ()
Sea Level Pressure  
Sea Level Pressure 29.78 in    
Wind  
Wind Speed 9 mph ()    
Max Wind Speed 14 mph    
Max Gust Speed -    
Visibility 8.9 miles    
Events Rain    
Averages and records for this station are not official NWS values.
T = Trace of Precipitation, MM = Missing Value Source: Averaged Metar Reports

Daily Weather History Graph

Daily Weather History Graph

Search for Another Location

Airport or City:

Trip Planner

Search our weather history database for the weather conditions in past years. The results will help you decide how hot, cold, wet, or windy it might be!

Date:

Astronomy

Feb. 18, 2014 Rise Set
Actual Time 7:10 AM GMT 5:22 PM GMT
Civil Twilight 6:35 AM GMT 5:56 PM GMT
Nautical Twilight 5:57 AM GMT 6:35 PM GMT
Astronomical Twilight 5:18 AM GMT 7:14 PM GMT
Moon 9:31 PM GMT (2/18) 8:07 AM GMT (2/18)
Length of Visible Light 11h 20m
Length of Day
10h 12m
Waning Gibbous, 89% of the Moon is Illuminated
Feb 18
Waning Gibbous
Feb 22
Last Quarter
Mar 1
New
Mar 8
First Quarter
Mar 16
Full

Hourly Weather History & Observations

Time (GMT) Temp. Windchill Dew Point Humidity Pressure Visibility Wind Dir Wind Speed Gust Speed Precip Events Conditions
12:00 AM 47 °F - 44 °F 84% 29.81 in 10 mi South 12.7 mph - - Rain Light Rain Showers
12:20 AM 46.4 °F 40.7 °F 42.8 °F 87% 29.80 in 6.2 mi South 12.7 mph - N/A Rain Light Rain
12:50 AM 46.4 °F 40.7 °F 44.6 °F 93% 29.80 in 6.2 mi South 12.7 mph - N/A Rain Light Rain
1:00 AM 46 °F - 44 °F 88% 29.80 in 11 mi South 11.5 mph - - Rain Light Rain
1:20 AM 46.4 °F 41.5 °F 44.6 °F 93% 29.80 in 6.2 mi South 10.4 mph - N/A Rain Light Rain
1:50 AM 46.4 °F 41.9 °F 44.6 °F 93% 29.80 in 6.2 mi South 9.2 mph - N/A   Light Drizzle
2:00 AM 46 °F - 44 °F 89% 29.80 in 17 mi South 9.2 mph - - Rain Light Rain
2:20 AM 46.4 °F 42.4 °F 44.6 °F 93% 29.80 in 6.2 mi South 8.1 mph - N/A   Mostly Cloudy
2:50 AM 46.4 °F 42.4 °F 44.6 °F 93% 29.80 in 6.2 mi South 8.1 mph - N/A   Mostly Cloudy
3:00 AM 46 °F - 44 °F 89% 29.80 in 18 mi South 8.1 mph - - Rain Rain
3:20 AM 46.4 °F 42.9 °F 44.6 °F 93% 29.77 in 6.2 mi South 6.9 mph - N/A   Mostly Cloudy
3:50 AM 46.4 °F 42.9 °F 44.6 °F 93% 29.77 in 6.2 mi South 6.9 mph - N/A   Mostly Cloudy
4:00 AM 46 °F - 44 °F 90% 29.79 in 14 mi South 8.1 mph - -   Partly Cloudy
4:20 AM 46.4 °F 43.5 °F 44.6 °F 93% 29.77 in 6.2 mi South 5.8 mph - N/A   Partly Cloudy
4:50 AM 46.4 °F 42.4 °F 44.6 °F 93% 29.77 in 6.2 mi SSE 8.1 mph - N/A   Partly Cloudy
5:00 AM 46 °F - 44 °F 92% 29.78 in 14 mi SSE 8.1 mph - -   Mostly Cloudy
5:20 AM 46.4 °F 42.9 °F 44.6 °F 93% 29.77 in 6.2 mi SSE 6.9 mph - N/A   Mostly Cloudy
5:50 AM 46.4 °F 42.9 °F 44.6 °F 93% 29.77 in 6.2 mi SSE 6.9 mph - N/A   Mostly Cloudy
6:00 AM 46 °F - 44 °F 92% 29.78 in 11 mi SE 6.9 mph - -  
6:20 AM 46.4 °F 42.9 °F 44.6 °F 93% 29.77 in 6.2 mi SSE 6.9 mph - N/A   Mostly Cloudy
6:50 AM 46.4 °F 42.9 °F 44.6 °F 93% 29.77 in 6.2 mi SSE 6.9 mph - N/A   Mostly Cloudy
7:00 AM 46 °F - 44 °F 92% 29.78 in 12 mi SSE 5.8 mph - -   Partly Cloudy
7:20 AM 46.4 °F 42.9 °F 44.6 °F 93% 29.77 in 6.2 mi South 6.9 mph - N/A   Mostly Cloudy
7:50 AM 46.4 °F 43.5 °F 44.6 °F 93% 29.77 in 6.2 mi South 5.8 mph - N/A   Mostly Cloudy
8:00 AM 47 °F - 44 °F 86% 29.79 in 12 mi SSE 5.8 mph - -   Mostly Cloudy
8:20 AM 46.4 °F 42.9 °F 44.6 °F 93% 29.77 in 6.2 mi South 6.9 mph - N/A   Mostly Cloudy
8:50 AM 48.2 °F - 44.6 °F 87% 29.77 in 6.2 mi South 9.2 mph - N/A Rain Light Rain Showers
9:00 AM 48 °F - 45 °F 86% 29.79 in 12 mi South 8.1 mph - - Rain Rain
9:20 AM 48.2 °F - 44.6 °F 87% 29.77 in 6.2 mi South 9.2 mph - N/A   Mostly Cloudy
9:50 AM 48.2 °F - 46.4 °F 93% 29.80 in 6.2 mi South 9.2 mph - N/A   Mostly Cloudy
10:00 AM 48 °F - 46 °F 88% 29.79 in 8 mi South 8.1 mph - - Rain Light Rain Showers
10:20 AM 48.2 °F - 46.4 °F 93% 29.80 in 6.2 mi South 9.2 mph - N/A   Scattered Clouds
10:50 AM 48.2 °F - 46.4 °F 93% 29.80 in 6.2 mi SSW 9.2 mph - N/A Rain Light Rain Showers
11:00 AM 49 °F - 46 °F 83% 29.79 in 12 mi South 8.1 mph - - Rain Rain
11:20 AM 48.2 °F - 46.4 °F 93% 29.80 in 6.2 mi SW 8.1 mph - N/A Rain Light Rain Showers
11:50 AM 50.0 °F - 46.4 °F 87% 29.77 in 6.2 mi South 13.8 mph - N/A   Mostly Cloudy
12:00 PM 51 °F - 47 °F 80% 29.78 in 12 mi South 11.5 mph - - Rain Rain
12:20 PM 50.0 °F - 46.4 °F 87% 29.77 in 5.6 mi SW 11.5 mph - N/A Rain Light Rain Showers
12:50 PM 50.0 °F - 44.6 °F 82% 29.77 in 6.2 mi WSW 12.7 mph - N/A Rain Light Rain Showers
1:00 PM 49 °F - 44 °F 79% 29.78 in 17 mi WSW 11.5 mph - - Rain Light Rain Showers
1:20 PM 48.2 °F - 44.6 °F 87% 29.77 in 6.2 mi WSW 11.5 mph - N/A Rain Light Rain Showers
1:50 PM 48.2 °F - 44.6 °F 87% 29.77 in 6.2 mi SSW 8.1 mph - N/A   Partly Cloudy
2:00 PM 49 °F - 44 °F 76% 29.76 in 22 mi SSW 10.4 mph - - Rain Rain
2:20 PM 48.2 °F - 44.6 °F 87% 29.74 in 6.2 mi SSW 10.4 mph - N/A   Partly Cloudy
2:50 PM 50.0 °F - 44.6 °F 82% 29.74 in 6.2 mi SW 12.7 mph - N/A   Partly Cloudy
3:00 PM 50 °F - 44 °F 75% 29.76 in 22 mi SW 10.4 mph - - Rain Rain
3:20 PM 48.2 °F - 44.6 °F 87% 29.74 in 6.2 mi SW 9.2 mph - N/A   Partly Cloudy
3:50 PM 50.0 °F - 46.4 °F 87% 29.74 in 6.2 mi SW 9.2 mph - N/A   Partly Cloudy
4:00 PM 49 °F - 44 °F 79% 29.76 in 19 mi SSW 10.4 mph - -   Scattered Clouds
4:20 PM 50.0 °F - 44.6 °F 82% 29.74 in 6.2 mi SW 9.2 mph - N/A   Scattered Clouds
4:50 PM 48.2 °F - 44.6 °F 87% 29.74 in 6.2 mi SSW 8.1 mph - N/A   Scattered Clouds
5:00 PM 49 °F - 45 °F 80% 29.76 in 13 mi SSW 8.1 mph - - Rain Light Rain Showers
5:20 PM 48.2 °F - 44.6 °F 87% 29.77 in 6.2 mi SSW 8.1 mph - N/A   Partly Cloudy
5:50 PM 48.2 °F - 44.6 °F 87% 29.77 in 6.2 mi SSW 6.9 mph - N/A   Partly Cloudy
6:00 PM 47 °F - 44 °F 86% 29.77 in 16 mi SSW 9.2 mph - - Rain Rain
6:20 PM 46.4 °F 42.9 °F 42.8 °F 87% 29.77 in 6.2 mi SW 6.9 mph - N/A   Partly Cloudy
6:50 PM 46.4 °F 42.9 °F 42.8 °F 87% 29.77 in 6.2 mi WSW 6.9 mph - N/A   Partly Cloudy
7:00 PM 47 °F - 44 °F 83% 29.79 in 19 mi WSW 8.1 mph - -   Mostly Cloudy
7:20 PM 46.4 °F 42.4 °F 42.8 °F 87% 29.77 in 6.2 mi SW 8.1 mph - N/A   Partly Cloudy
7:50 PM 44.6 °F 40.7 °F 42.8 °F 93% 29.80 in - SW 6.9 mph - N/A   Clear
8:00 PM 45 °F - 43 °F 88% 29.80 in 16 mi SW 8.1 mph - -   Scattered Clouds
8:20 PM 44.6 °F 39.7 °F 42.8 °F 93% 29.80 in - SW 9.2 mph - N/A   Clear
8:50 PM 44.6 °F 40.2 °F 41.0 °F 87% 29.80 in 6.2 mi SW 8.1 mph - N/A   Partly Cloudy
9:00 PM 44 °F - 41 °F 87% 29.81 in 15 mi SW 8.1 mph - -  
9:20 PM 44.6 °F 39.7 °F 41.0 °F 87% 29.83 in 6.2 mi WSW 9.2 mph - N/A   Partly Cloudy
9:50 PM 42.8 °F 39.3 °F 41.0 °F 93% 29.83 in 6.2 mi WSW 5.8 mph - N/A   Partly Cloudy
10:00 PM 43 °F - 41 °F 89% 29.83 in 18 mi SW 6.9 mph - -   Scattered Clouds
10:20 PM 42.8 °F 38.6 °F 41.0 °F 93% 29.83 in - WSW 6.9 mph - N/A   Clear
10:50 PM 42.8 °F 38.6 °F 39.2 °F 87% 29.83 in - SW 6.9 mph - N/A   Clear
11:00 PM 42 °F - 40 °F 92% 29.83 in 19 mi SW 6.9 mph - -  
11:20 PM 41.0 °F 38.0 °F 39.2 °F 93% 29.83 in - SSW 4.6 mph - N/A   Clear
11:50 PM 41.0 °F 37.1 °F 39.2 °F 93% 29.83 in 6.2 mi West 5.8 mph - N/A   Partly Cloudy